TimeEDT,TemperatureF,Dew PointF,Humidity,Sea Level PressureIn,VisibilityMPH,Wind Direction,Wind SpeedMPH,Gust SpeedMPH,PrecipitationIn,Events,Conditions,WindDirDegrees,DateUTC
12:15 AM,71.6,51.8,50,29.89,10.0,South,9.2,-,N/A,,Clear,190,2013-04-10 04:15:00
12:35 AM,69.8,51.8,53,29.88,10.0,South,9.2,-,N/A,,Clear,190,2013-04-10 04:35:00
12:55 AM,69.8,51.8,53,29.88,10.0,South,6.9,-,N/A,,Clear,190,2013-04-10 04:55:00
1:15 AM,69.8,51.8,53,29.87,10.0,SSW,8.1,-,N/A,,Clear,200,2013-04-10 05:15:00
1:35 AM,69.8,51.8,53,29.87,10.0,SSW,9.2,-,N/A,,Clear,210,2013-04-10 05:35:00
1:55 AM,69.8,51.8,53,29.87,10.0,SW,6.9,-,N/A,,Clear,230,2013-04-10 05:55:00
2:15 AM,68.0,53.6,60,29.86,10.0,SW,6.9,-,N/A,,Clear,220,2013-04-10 06:15:00
2:35 AM,68.0,51.8,56,29.86,10.0,SW,4.6,-,N/A,,Clear,220,2013-04-10 06:35:00
2:55 AM,68.0,51.8,56,29.86,10.0,Calm,Calm,-,N/A,,Clear,0,2013-04-10 06:55:00
3:15 AM,64.4,51.8,64,29.85,10.0,SW,5.8,-,N/A,,Clear,220,2013-04-10 07:15:00
3:35 AM,66.2,51.8,60,29.86,10.0,WSW,3.5,-,N/A,,Clear,240,2013-04-10 07:35:00
3:55 AM,68.0,51.8,56,29.86,10.0,WSW,3.5,-,N/A,,Clear,240,2013-04-10 07:55:00
4:15 AM,68.0,51.8,56,29.86,10.0,WSW,4.6,-,N/A,,Clear,240,2013-04-10 08:15:00
4:35 AM,66.2,51.8,60,29.87,10.0,WSW,6.9,-,N/A,,Clear,250,2013-04-10 08:35:00
4:55 AM,68.0,51.8,56,29.87,10.0,WSW,6.9,-,N/A,,Clear,250,2013-04-10 08:55:00
5:15 AM,68.0,51.8,56,29.88,10.0,WSW,5.8,-,N/A,,Clear,250,2013-04-10 09:15:00
5:35 AM,66.2,51.8,60,29.88,10.0,WSW,4.6,-,N/A,,Clear,250,2013-04-10 09:35:00
5:55 AM,64.4,51.8,64,29.88,10.0,WSW,4.6,-,N/A,,Clear,240,2013-04-10 09:55:00
6:15 AM,64.4,51.8,64,29.89,10.0,WSW,3.5,-,N/A,,Clear,250,2013-04-10 10:15:00
6:35 AM,62.6,51.8,68,29.90,10.0,Calm,Calm,-,N/A,,Clear,0,2013-04-10 10:35:00
6:55 AM,60.8,51.8,72,29.90,10.0,Calm,Calm,-,N/A,,Scattered Clouds,0,2013-04-10 10:55:00
7:15 AM,62.6,53.6,72,29.91,10.0,Calm,Calm,-,N/A,,Mostly Cloudy,0,2013-04-10 11:15:00
7:35 AM,64.4,53.6,68,29.92,10.0,Calm,Calm,-,N/A,,Mostly Cloudy,0,2013-04-10 11:35:00
7:55 AM,68.0,53.6,60,29.92,10.0,Calm,Calm,-,N/A,,Mostly Cloudy,0,2013-04-10 11:55:00
8:35 AM,69.8,51.8,53,29.93,10.0,WSW,3.5,-,N/A,,Clear,250,2013-04-10 12:35:00
8:55 AM,71.6,51.8,50,29.92,10.0,WNW,3.5,-,N/A,,Clear,290,2013-04-10 12:55:00
9:15 AM,75.2,51.8,44,29.92,10.0,NNW,3.5,-,N/A,,Clear,340,2013-04-10 13:15:00
9:35 AM,77.0,51.8,41,29.92,10.0,North,3.5,-,N/A,,Clear,360,2013-04-10 13:35:00
9:55 AM,77.0,51.8,41,29.92,10.0,Calm,Calm,-,N/A,,Clear,0,2013-04-10 13:55:00
10:15 AM,78.8,51.8,39,29.92,10.0,Calm,Calm,-,N/A,,Clear,0,2013-04-10 14:15:00
10:35 AM,80.6,53.6,39,29.92,10.0,Calm,Calm,-,N/A,,Clear,0,2013-04-10 14:35:00
12:35 PM,86.0,53.6,33,29.88,10.0,West,8.1,-,N/A,,Clear,260,2013-04-10 16:35:00
2:55 PM,87.8,53.6,31,29.85,10.0,West,9.2,-,N/A,,Clear,270,2013-04-10 18:55:00
3:15 PM,86.0,53.6,33,29.85,10.0,West,11.5,19.6,N/A,,Scattered Clouds,270,2013-04-10 19:15:00
4:35 PM,87.8,53.6,31,29.81,10.0,WSW,9.2,17.3,N/A,,Clear,250,2013-04-10 20:35:00
5:15 PM,87.8,51.8,29,29.80,10.0,WSW,11.5,18.4,N/A,,Clear,250,2013-04-10 21:15:00
5:35 PM,86.0,53.6,33,29.80,10.0,WSW,11.5,17.3,N/A,,Clear,240,2013-04-10 21:35:00
5:55 PM,86.0,53.6,33,29.78,10.0,WSW,8.1,-,N/A,,Clear,240,2013-04-10 21:55:00
6:15 PM,86.0,53.6,33,29.78,10.0,SW,8.1,-,N/A,,Clear,230,2013-04-10 22:15:00
6:35 PM,86.0,53.6,33,29.77,10.0,SSW,8.1,17.3,N/A,,Clear,210,2013-04-10 22:35:00
6:55 PM,82.4,55.4,39,29.77,10.0,SSW,6.9,-,N/A,,Clear,200,2013-04-10 22:55:00
7:15 PM,82.4,53.6,37,29.77,10.0,SSW,8.1,-,N/A,,Scattered Clouds,200,2013-04-10 23:15:00
7:35 PM,77.0,51.8,41,29.80,10.0,NE,11.5,-,N/A,,Scattered Clouds,50,2013-04-10 23:35:00
7:55 PM,69.8,51.8,53,29.80,10.0,ENE,15.0,24.2,N/A,,Mostly Cloudy,60,2013-04-10 23:55:00
8:15 PM,66.2,55.4,68,29.88,3.0,NNE,10.4,36.8,0.03,,Overcast,20,2013-04-11 00:15:00
8:35 PM,62.6,59.0,88,29.82,2.5,SE,12.7,-,0.19,,Overcast,130,2013-04-11 00:35:00
8:55 PM,62.6,59.0,88,29.81,10.0,Calm,Calm,-,0.19,,Scattered Clouds,0,2013-04-11 00:55:00
9:35 PM,62.6,59.0,88,29.81,7.0,SSE,3.5,-,0.01,,Scattered Clouds,160,2013-04-11 01:35:00
9:55 PM,62.6,59.0,88,29.89,7.0,NNW,13.8,21.9,0.01,,Clear,330,2013-04-11 01:55:00
10:15 PM,64.4,60.8,88,29.94,1.5,NNW,11.5,27.6,0.16,,Overcast,330,2013-04-11 02:15:00
10:35 PM,62.6,60.8,94,29.92,4.0,North,3.5,-,0.25,,Overcast,350,2013-04-11 02:35:00
10:55 PM,62.6,60.8,94,29.91,10.0,Calm,Calm,-,0.27,,Overcast,0,2013-04-11 02:55:00
11:15 PM,62.6,60.8,94,29.86,7.0,East,5.8,-,0.01,,Mostly Cloudy,80,2013-04-11 03:15:00